EW5206 Weather Reports


time (UTC)temp
F
wind
direction
speed
knots
gust
knots
rain 1hr
in
rain 24hr
in
rain mn
in
humidity
%
barometer
mb
20210927080041 49 50 0.0 0.0 0.00 0.00 0.00 89 1020.7
20210927074527 49 50 0.0 0.0 0.00 0.00 0.00 87 1020.8
20210927073106 50 50 0.0 0.0 0.00 0.00 0.00 87 1020.8
20210927071601 51 32 0.0 0.0 0.00 0.00 0.00 84 1020.9
20210927070131 52 26 0.0 0.0 0.00 0.00 0.00 84 1020.7
20210927064529 50 34 0.0 0.9 0.00 0.00 0.00 87 1020.8
20210927063026 50 51 0.0 0.0 0.00 0.00 0.00 88 1020.8
20210927061556 50 51 0.0 0.0 0.00 0.00 0.00 87 1020.9
20210927060026 50 51 0.0 0.0 0.00 0.00 0.00 86 1020.9
20210927054526 50 51 0.0 0.0 0.00 0.00 0.00 86 1021.0
20210927053019 51 51 0.0 0.0 0.00 0.00 0.00 85 1020.9
20210927051521 51 51 0.0 0.0 0.00 0.00 0.00 84 1020.9
20210927050114 51 51 0.0 0.0 0.00 0.00 0.00 83 1021.0
20210927044521 52 51 0.0 0.0 0.00 0.00 0.00 82 1020.9
20210927043017 52 51 0.0 0.0 0.00 0.00 0.00 80 1020.9
20210927041509 53 51 0.0 0.0 0.00 0.00 0.00 80 1020.8
20210927040010 53 51 0.0 0.0 0.00 0.00 0.00 79 1020.8
20210927034509 54 51 0.0 0.0 0.00 0.00 0.00 78 1020.8
20210927033013 54 51 0.0 0.0 0.00 0.00 0.00 77 1020.7
20210927031504 55 51 0.0 0.0 0.00 0.00 0.00 75 1020.8
20210927030006 54 41 0.0 0.0 0.00 0.00 0.00 75 1020.8
20210927024505 54 41 0.0 1.7 0.00 0.00 0.00 75 1020.8
20210927023003 55 41 0.0 0.0 0.00 0.00 0.00 74 1020.8
20210927021514 55 41 0.0 0.0 0.00 0.00 0.00 73 1020.7
20210927020028 57 41 0.0 0.0 0.00 0.00 0.00 73 1020.6
20210927014512 58 5 0.0 0.0 0.00 0.00 0.00 67 1020.6
20210927013002 58 46 0.0 0.0 0.00 0.00 0.00 66 1020.7
20210927011501 58 341 0.0 2.6 0.00 0.00 0.00 66 1020.7
20210927010133 57 332 0.0 0.0 0.00 0.00 0.00 66 1020.5
20210927004712 57 333 0.0 0.0 0.00 0.00 0.00 67 1020.4
20210927003126 57 332 0.0 0.0 0.00 0.00 0.00 67 1020.2
20210927001624 58 332 0.0 0.0 0.00 0.00 0.00 67 1020.0
20210927000131 58 332 0.0 0.0 0.00 0.00 0.00 66 1019.9
20210926234607 59 332 0.0 1.7 0.00 0.00 0.00 63 1019.8
20210926233134 59 331 0.0 0.0 0.00 0.00 0.00 62 1019.6
20210926231628 60 338 0.9 2.6 0.00 0.00 0.00 62 1019.5
20210926230155 61 338 0.0 0.0 0.00 0.00 0.00 60 1019.4
20210926224650 62 360 0.0 0.9 0.00 0.00 0.00 60 1019.3
20210926223109 63 36 0.9 3.5 0.00 0.00 0.00 57 1019.4
20210926221707 63 330 0.0 4.3 0.00 0.00 0.00 58 1019.3
20210926220117 64 61 0.0 4.3 0.00 0.00 0.00 59 1019.3
20210926214637 65 23 0.0 1.7 0.00 0.00 0.00 58 1019.1
20210926213122 65 208 0.0 4.3 0.00 0.00 0.00 54 1019.0
20210926211557 66 65 0.9 2.6 0.00 0.00 0.00 51 1019.0
20210926210137 66 29 0.0 5.2 0.00 0.00 0.00 49 1019.0
20210926204647 67 360 0.9 7.8 0.00 0.00 0.00 49 1019.1
20210926203137 67 38 0.9 5.2 0.00 0.00 0.00 50 1019.1
20210926201732 67 82 0.0 3.5 0.00 0.00 0.00 45 1019.1
20210926200118 68 276 0.9 4.3 0.00 0.00 0.00 45 1019.1
20210926194738 68 340 1.7 8.7 0.00 0.00 0.00 46 1019.0
20210926193106 68 38 0.9 7.0 0.00 0.00 0.00 46 1019.2
20210926191637 68 175 0.0 0.0 0.00 0.00 0.00 48 1019.3
20210926190116 68 340 0.9 10.4 0.00 0.00 0.00 50 1019.4
20210926184638 68 119 0.9 7.0 0.00 0.00 0.00 49 1019.7
20210926183129 68 173 1.7 4.3 0.00 0.00 0.00 49 1019.9
20210926181553 69 28 2.6 9.6 0.00 0.00 0.00 48 1020.0
20210926180130 69 223 0.9 7.0 0.00 0.00 0.00 52 1020.3
20210926174559 67 253 0.9 10.4 0.00 0.00 0.00 49 1020.5
20210926173143 67 220 1.7 5.2 0.00 0.00 0.00 53 1020.5
20210926171628 68 25 0.9 5.2 0.00 0.00 0.00 49 1020.8
20210926170046 68 164 1.7 11.3 0.00 0.00 0.00 47 1020.9
20210926164537 67 333 0.9 7.8 0.00 0.00 0.00 50 1021.0
20210926163122 67 254 0.9 7.8 0.00 0.00 0.00 49 1021.1
20210926161540 66 43 5.2 10.4 0.00 0.00 0.00 50 1021.2
20210926160047 66 92 0.0 7.0 0.00 0.00 0.00 58 1021.1
20210926154611 65 194 0.0 10.4 0.00 0.00 0.00 52 1021.2
20210926153032 64 50 0.9 7.0 0.00 0.00 0.00 57 1021.2
20210926151537 65 34 1.7 9.6 0.00 0.00 0.00 59 1021.2
20210926150059 64 51 0.9 7.0 0.00 0.00 0.00 61 1021.3
20210926144535 63 355 0.0 4.3 0.00 0.00 0.00 61 1021.5
20210926143035 62 5 0.0 4.3 0.00 0.00 0.00 65 1021.3
20210926141522 62 38 0.0 7.8 0.00 0.00 0.00 64 1021.4
20210926140041 61 327 0.0 0.0 0.00 0.00 0.00 72 1021.2
20210926134551 60 291 0.0 0.0 0.00 0.00 0.00 75 1021.2
20210926133009 59 342 0.0 0.0 0.00 0.00 0.00 76 1021.2
20210926131518 58 294 0.0 0.0 0.00 0.00 0.00 80 1021.1
20210926130136 56 325 0.0 0.0 0.00 0.00 0.00 80 1020.9
20210926124719 55 39 0.0 0.0 0.00 0.00 0.00 86 1020.9
20210926123115 53 360 0.0 0.0 0.00 0.00 0.00 90 1020.7
20210926121632 52 355 0.0 0.0 0.00 0.00 0.00 92 1020.6
20210926120155 51 265 0.0 0.0 0.00 0.00 0.00 93 1020.3
20210926114653 51 342 0.0 2.6 0.00 0.00 0.00 92 1020.0
20210926113118 51 56 0.0 0.0 0.00 0.00 0.00 92 1020.0
20210926111719 51 30 0.0 1.7 0.00 0.00 0.00 92 1019.8
20210926110130 51 340 0.0 1.7 0.00 0.00 0.00 93 1019.7
20210926104550 51 335 0.0 2.6 0.00 0.00 0.00 93 1019.4
20210926103047 51 360 0.0 0.0 0.00 0.00 0.00 94 1019.4
20210926101555 51 355 0.0 0.0 0.00 0.00 0.00 94 1019.2
20210926100040 51 355 0.0 0.9 0.00 0.00 0.00 94 1019.1
20210926094606 51 32 0.0 0.9 0.00 0.00 0.00 94 1019.0
20210926093047 51 32 0.0 0.9 0.00 0.00 0.00 94 1018.8
20210926091618 51 33 0.0 0.9 0.00 0.00 0.00 93 1018.8
20210926090116 51 34 0.0 0.0 0.00 0.00 0.00 93 1018.7
20210926084548 51 34 0.0 0.0 0.00 0.00 0.00 92 1018.7
20210926083113 51 34 0.0 0.0 0.00 0.00 0.00 92 1018.5
20210926081546 51 34 0.0 0.0 0.00 0.00 0.00 92 1018.4